This is the latest recevied weather packets stored in our database for station/object KK4MOR. If no packets are shown the sender has not sent any weather packets the latest 10 day(s).
| Time | Temp. | Humidity | Pressure | Rain* | Wind** | Luminosity | Snow |
|---|---|---|---|---|---|---|---|
| 1777753804 | 17.22° C | 41% | 1013.3 hPa | 0 mm | - | - | - |
| 1777752903 | 16.11° C | 42% | 1013.7 hPa | 0 mm | - | - | - |
| 1777752002 | 16.67° C | 44% | 1013.8 hPa | 0 mm | - | - | - |
| 1777751102 | 16.11° C | 45% | 1013.9 hPa | 0 mm | - | - | - |
| 1777750201 | 16.11° C | 43% | 1014 hPa | 0 mm | - | - | - |
| 1777749361 | 16.11° C | 43% | 1014.1 hPa | 0 mm | - | - | - |
| 1777748467 | 16.11° C | 41% | 1014 hPa | 0 mm | - | - | - |
| 1777747561 | 16.67° C | 42% | 1014.1 hPa | 0 mm | - | - | - |
| 1777746657 | 16.11° C | 44% | 1014.3 hPa | 0 mm | - | - | - |
| 1777745757 | 16.11° C | 42% | 1014.4 hPa | 0 mm | - | - | - |
| 1777744881 | 16.11° C | 43% | 1014.4 hPa | 0 mm | - | - | - |
| 1777743955 | 16.67° C | 42% | 1014.5 hPa | 0 mm | - | - | - |
| 1777743052 | 16.67° C | 41% | 1014.6 hPa | 0 mm | - | - | - |
| 1777742152 | 16.11° C | 42% | 1014.8 hPa | 0 mm | - | - | - |
| 1777741256 | 16.11° C | 46% | 1014.8 hPa | 0 mm | - | - | - |
| 1777740363 | 16.11° C | 45% | 1015 hPa | 0 mm | - | - | - |
| 1777739445 | 15.56° C | 44% | 1015 hPa | 0 mm | - | - | - |
| 1777738543 | 15.56° C | 47% | 1015.2 hPa | 0 mm | - | - | - |
| 1777737646 | 15° C | 48% | 1015.1 hPa | 0 mm | - | - | - |
| 1777736743 | 14.44° C | 48% | 1015.2 hPa | 0 mm | - | - | - |
| 1777735840 | 14.44° C | 48% | 1015.2 hPa | 0 mm | - | - | - |
| 1777734936 | 14.44° C | 49% | 1015.1 hPa | 0 mm | - | - | - |
| 1777734039 | 14.44° C | 50% | 1015.1 hPa | 0 mm | - | - | - |
| 1777733131 | 13.89° C | 51% | 1015 hPa | 0 mm | - | - | - |
| 1777732231 | 13.89° C | 52% | 1014.9 hPa | 0 mm | - | - | - |
* Rain latest hour (hover to see other rain measurements)
** Current wind speed in m/s (hover to see current wind gust speed)